Retour au catalogue

STARLINK-31574

ActifCommunicationsVLEO
NORAD 59543·PAYLOAD·🇺🇸 United States

Lancé Apr 18, 2024 depuis Cape Canaveral Space Force Station

Loading…

Prochains Passages (prochaines 24 heures)

TLE

FraisSource: CelesTrak SupGP

Époque: Sep 14, 2026, 22:41 UTC

1 59543C 24074K   26257.94562500 -.00013969  00000+0 -50597-3 0  2571
2 59543  43.0037 354.8369 0001496 268.6935 213.8278 15.27583261    14

Suivez STARLINK-31574 en temps réel avec AllMySat

Download on the App Store